{"data":{"norad_id":49070,"epoch":"2026-09-20T04:04:49.853280Z","epoch_age_seconds":46642,"freshness":"FRESH","line1":"1 49070U 21073E   26263.17002145  .00000211  00000+0  33381-4 0  9997","line2":"2 49070  97.8946 336.5673 0001462  88.4161 271.7219 14.81673519275434","mean_motion":14.81673519,"eccentricity":0.0001462,"inclination_deg":97.8946,"raan_deg":336.5673,"arg_perigee_deg":88.4161,"mean_anomaly_deg":271.7219,"bstar":3.3381e-5,"rev_number":27543,"period_min":97.187402051423,"perigee_km":623.02290198871,"apogee_km":625.07034047956,"semimajor_km":7002.1836212341,"source":"CELESTRAK","updated_at":"2026-09-20T09:00:33.977255Z"}}